DW2935 Weather Reports


time (UTC)temp
C
wind
direction
speed
KPH
gust
KPH
rain 1hr
cm
rain 24hr
cm
rain mn
cm
humidity
%
barometer
mb
20260504202038 20 0.0 0.0 0.00 0.00 0.00 34 1005.3
20260504201537 20 0.0 0.0 0.00 0.00 0.00 34 1005.2
20260504201029 20 0.0 0.0 0.00 0.00 0.00 37 1005.3
20260504200522 19 0.0 0.0 0.00 0.00 0.00 36 1005.4
20260504200022 19 0.0 0.0 0.00 0.00 0.00 35 1005.4
20260504195508 19 0.0 0.0 0.00 0.00 0.00 36 1005.4
20260504195001 19 0.0 0.0 0.00 0.00 0.00 36 1005.4
20260504194451 19 0.0 0.0 0.00 0.00 0.00 35 1005.5
20260504194203 19 0.0 0.0 0.00 0.00 0.00 36 1005.4
20260504193420 20 0.0 0.0 0.00 0.00 0.00 35 1005.4
20260504192910 20 0.0 0.0 0.00 0.00 0.00 36 1005.6
20260504192409 20 0.0 0.0 0.00 0.00 0.00 36 1005.5
20260504191907 20 0.0 0.0 0.00 0.00 0.00 35 1005.4
20260504191359 20 0.0 0.0 0.00 0.00 0.00 37 1005.4
20260504190831 19 0.0 0.0 0.00 0.00 0.00 35 1005.5
20260504190323 20 0.0 0.0 0.00 0.00 0.00 36 1005.5
20260504185822 20 0.0 0.0 0.00 0.00 0.00 34 1005.6
20260504185308 20 0.0 0.0 0.00 0.00 0.00 36 1005.6
20260504184801 19 0.0 0.0 0.00 0.00 0.00 36 1005.6
20260504184301 19 0.0 0.0 0.00 0.00 0.00 35 1005.7
20260504184029 20 0.0 0.0 0.00 0.00 0.00 36 1005.7
20260504183259 21 0.0 0.0 0.00 0.00 0.00 32 1005.6
20260504182759 21 0.0 0.0 0.00 0.00 0.00 33 1005.6
20260504182257 21 0.0 0.0 0.00 0.00 0.00 36 1005.7
20260504181751 21 0.0 0.0 0.00 0.00 0.00 32 1005.7
20260504181241 21 0.0 0.0 0.00 0.00 0.00 34 1005.6
20260504180744 20 0.0 0.0 0.00 0.00 0.00 33 1005.8
20260504180454 21 0.0 0.0 0.00 0.00 0.00 32 1005.6
20260504175945 21 0.0 0.0 0.00 0.00 0.00 32 1005.7
20260504175201 21 0.0 0.0 0.00 0.00 0.00 34 1005.7
20260504174702 20 0.0 0.0 0.00 0.00 0.00 33 1005.7
20260504174157 21 0.0 0.0 0.00 0.00 0.00 33 1005.7
20260504173652 20 0.0 0.0 0.00 0.00 0.00 34 1005.7
20260504173646 21 0.0 0.0 0.00 0.00 0.00 32 1005.6
20260504173132 20 0.0 0.0 0.00 0.00 0.00 35 1005.7
20260504172126 20 0.0 0.0 0.00 0.00 0.00 34 1005.9
20260504171631 20 0.0 0.0 0.00 0.00 0.00 34 1005.9
20260504171627 20 0.0 0.0 0.00 0.00 0.00 34 1005.9
20260504170624 20 0.0 0.0 0.00 0.00 0.00 35 1005.9
20260504170117 19 0.0 0.0 0.00 0.00 0.00 32 1005.9
20260504150857 18 0.0 0.0 0.00 0.00 0.00 39 1006.6
20260504150358 17 0.0 0.0 0.00 0.00 0.00 39 1006.6
20260504150113 17 0.0 0.0 0.00 0.00 0.00 39 1006.6
20260504141246 16 0.0 0.0 0.00 0.00 0.00 43 1007.1
20260504141005 16 0.0 0.0 0.00 0.00 0.00 44 1007.2
20260504140221 15 0.0 0.0 0.00 0.00 0.00 45 1007.1
20260504130602 13 0.0 0.0 0.00 0.00 0.00 53 1007.9
20260504110245 6 0.0 0.0 0.00 0.00 0.00 74 1008.8
20260504100556 6 0.0 0.0 0.00 0.08 0.00 75 1008.6
20260504081701 6 0.0 0.0 0.00 0.10 0.00 70 1008.4
20260504081205 5 0.0 0.0 0.00 0.10 0.00 70 1008.6
20260504081201 5 0.0 0.0 0.00 0.10 0.00 70 1008.6
20260504080157 5 0.0 0.0 0.00 0.10 0.00 70 1008.8
20260504070402 3 0.0 0.0 0.00 0.10 0.00 77 1008.6
20260504060200 2 0.0 0.0 0.00 0.10 0.00 77 1008.4
20260504050510 2 0.0 0.0 0.00 0.10 0.00 72 1008.5
20260504050000 2 0.0 0.0 0.00 0.10 0.00 72 1008.5
20260504045724 2 0.0 0.0 0.00 0.10 0.00 71 1008.5
20260504044950 2 0.0 0.0 0.00 0.10 0.00 71 1008.5
20260504044911 2 0.0 0.0 0.00 0.10 0.00 70 1008.5
20260504043902 2 0.0 0.0 0.00 0.10 0.00 70 1008.5
20260504043402 2 0.0 0.0 0.00 0.10 0.00 70 1008.5
20260504042856 2 0.0 0.0 0.00 0.10 0.00 68 1008.5
20260504042337 2 0.0 0.0 0.00 0.10 0.00 68 1008.5
20260504042210 2 0.0 0.0 0.00 0.10 0.00 68 1008.5
20260504042105 3 0.0 0.0 0.00 0.10 0.00 67 1008.5
20260504040820 3 0.0 0.0 0.00 0.10 0.00 66 1008.4
20260504040538 3 0.0 0.0 0.00 0.10 0.00 67 1008.4
20260504040419 3 0.0 0.0 0.00 0.10 0.10 67 1008.4
20260504035305 3 0.0 0.0 0.00 0.10 0.10 67 1008.4
20260504034755 3 0.0 0.0 0.00 0.10 0.10 67 1008.3
20260504034251 3 0.0 0.0 0.00 0.10 0.10 66 1008.3
20260504033748 3 0.0 0.0 0.00 0.10 0.10 66 1008.4
20260504033236 3 0.0 0.0 0.00 0.10 0.10 66 1008.4
20260504032957 3 0.0 0.0 0.00 0.10 0.10 65 1008.4
20260504032226 3 0.0 0.0 0.00 0.10 0.10 65 1008.4
20260504031720 3 0.0 0.0 0.00 0.10 0.10 65 1008.3
20260504031205 3 0.0 0.0 0.00 0.13 0.10 65 1008.3
20260504030933 3 0.0 0.0 0.00 0.13 0.10 65 1008.2
20260504030156 3 0.0 0.0 0.00 0.13 0.10 64 1008.3
20260504025604 3 0.0 0.0 0.00 0.13 0.10 64 1008.3
20260504025035 3 0.0 0.0 0.00 0.13 0.10 65 1008.3
20260504024524 4 0.0 0.0 0.00 0.13 0.10 65 1008.3
20260504024021 4 0.0 0.0 0.00 0.15 0.10 65 1008.3
20260504023507 4 0.0 0.0 0.00 0.15 0.10 64 1008.4
20260504023004 4 0.0 0.0 0.00 0.15 0.10 65 1008.3
20260504022504 4 0.0 0.0 0.00 0.15 0.10 64 1008.4
20260504021945 4 0.0 0.0 0.00 0.15 0.10 64 1008.3
20260504021711 4 0.0 0.0 0.00 0.15 0.10 64 1008.4
20260504020921 4 0.0 0.0 0.00 0.15 0.10 64 1008.3
20260504020649 4 0.0 0.0 0.00 0.15 0.10 64 1008.3
20260504015907 5 0.0 0.0 0.00 0.15 0.10 63 1008.3
20260504015401 5 0.0 0.0 0.00 0.15 0.10 62 1008.2
20260504014904 5 0.0 0.0 0.00 0.15 0.10 62 1008.2
20260504014358 5 0.0 0.0 0.00 0.15 0.10 61 1008.3
20260504013858 5 0.0 0.0 0.00 0.15 0.10 60 1008.2
20260504013401 5 0.0 0.0 0.00 0.15 0.10 60 1008.2
20260504012903 5 0.0 0.0 0.00 0.15 0.10 59 1008.1
20260504012858 5 0.0 0.0 0.00 0.15 0.10 59 1008.2
20260504012116 5 0.0 0.0 0.00 0.15 0.10 59 1008.1
20260504011343 5 0.0 0.0 0.00 0.15 0.10 59 1008.1
20260504010842 5 0.0 0.0 0.00 0.15 0.10 59 1008.0
20260504010315 5 0.0 0.0 0.00 0.15 0.10 59 1008.0
20260504005802 6 0.0 0.0 0.00 0.15 0.10 58 1007.9
20260504005235 6 0.0 0.0 0.00 0.15 0.10 57 1008.0
20260504004732 6 0.0 0.0 0.00 0.15 0.10 57 1008.0
20260504004224 6 0.0 0.0 0.00 0.15 0.10 56 1007.9
20260504003703 6 0.0 0.0 0.00 0.15 0.10 56 1007.7
20260504003431 6 0.0 0.0 0.00 0.15 0.10 55 1007.7
20260504002657 6 0.0 0.0 0.00 0.15 0.10 55 1007.6
20260504002150 6 0.0 0.0 0.00 0.15 0.10 54 1007.5
20260504002132 7 0.0 0.0 0.00 0.18 0.10 54 1007.6
20260504001108 7 0.0 0.0 0.00 0.18 0.10 54 1007.5
20260504000838 7 0.0 0.0 0.00 0.18 0.10 53 1007.4
20260504000106 7 0.0 0.0 0.00 0.18 0.10 54 1007.4
20260503235603 7 0.0 0.0 0.00 0.18 0.10 54 1007.3
20260503235042 7 0.0 0.0 0.00 0.18 0.10 54 1007.3
20260503234523 7 0.0 0.0 0.00 0.18 0.10 54 1007.2
20260503234022 8 0.0 0.0 0.00 0.18 0.10 54 1007.1
20260503233509 8 0.0 0.0 0.00 0.18 0.10 54 1007.0
20260503232959 8 0.0 0.0 0.00 0.18 0.10 54 1007.0
20260503232457 8 0.0 0.0 0.00 0.18 0.10 53 1006.9
20260503231942 8 0.0 0.0 0.00 0.18 0.10 52 1007.0
20260503231415 8 0.0 0.0 0.00 0.18 0.10 54 1006.9
20260503230905 8 0.0 0.0 0.00 0.18 0.10 52 1006.9
20260503230404 8 0.0 0.0 0.00 0.18 0.10 51 1006.9
20260503225853 8 0.0 0.0 0.00 0.18 0.10 50 1006.7
20260503225340 8 0.0 0.0 0.00 0.18 0.10 50 1006.7
20260503224824 8 0.0 0.0 0.00 0.20 0.10 49 1006.7
20260503224315 8 0.0 0.0 0.00 0.23 0.10 50 1006.7
20260503224305 9 0.0 0.0 0.00 0.25 0.10 51 1006.6
20260503223251 9 0.0 0.0 0.00 0.28 0.10 50 1006.5
20260503222745 9 0.0 0.0 0.00 0.36 0.10 49 1006.5
20260503222231 9 0.0 0.0 0.00 0.43 0.10 48 1006.5
20260503221717 10 0.0 0.0 0.00 0.46 0.10 49 1006.4
20260503221702 10 0.0 0.0 0.00 0.51 0.10 49 1006.4
20260503220701 10 0.0 0.0 0.00 0.53 0.10 47 1006.3
20260503220155 10 0.0 0.0 0.00 0.53 0.10 48 1006.2
20260503215651 10 0.0 0.0 0.00 0.53 0.10 51 1006.2
20260503215149 10 0.0 0.0 0.00 0.53 0.10 48 1006.2
20260503214625 10 0.0 0.0 0.00 0.56 0.10 49 1006.2
20260503214126 8 0.0 0.0 0.00 0.56 0.10 49 1006.2
20260503213847 8 0.0 0.0 0.00 0.61 0.10 51 1006.1
20260503213720 8 0.0 0.0 0.00 0.61 0.10 53 1006.2
20260503212602 8 0.0 0.0 0.00 0.61 0.10 54 1006.1
20260503212335 9 0.0 0.0 0.00 0.61 0.10 49 1006.1
20260503211600 9 0.0 0.0 0.00 0.61 0.10 49 1006.2
20260503211327 9 0.0 0.0 0.00 0.61 0.10 47 1006.0
20260503210816 9 0.0 0.0 0.00 0.61 0.10 46 1005.9
20260503210309 9 0.0 0.0 0.00 0.61 0.10 49 1005.9
20260503205529 9 0.0 0.0 0.00 0.61 0.10 50 1005.8
20260503205027 9 0.0 0.0 0.00 0.61 0.10 46 1005.9
20260503204527 9 0.0 0.0 0.00 0.61 0.10 47 1005.8
20260503204015 10 0.0 0.0 0.00 0.61 0.10 46 1005.7
20260503203509 10 0.0 0.0 0.00 0.61 0.10 45 1005.7
20260503203002 10 0.0 0.0 0.00 0.61 0.10 46 1005.7